This is the latest recevied weather packets stored in our database for station/object KQ7A. If no packets are shown the sender has not sent any weather packets the latest 10 day(s).
| Time | Temp. | Humidity | Pressure | Rain* | Wind** | Luminosity | Snow |
|---|---|---|---|---|---|---|---|
| 1777859954 | 11.11° C | 75% | 1013.5 hPa | 0 mm | - | 24 W/m² | - |
| 1777859650 | 11.11° C | 77% | 1013.3 hPa | 0 mm | - | 22 W/m² | - |
| 1777859346 | 11.67° C | 75% | 1013.2 hPa | 0 mm | - | 24 W/m² | - |
| 1777859042 | 11.11° C | 73% | 1013.6 hPa | 0 mm | - | 31 W/m² | - |
| 1777858739 | 11.67° C | 75% | 1013.5 hPa | 0 mm | - | 37 W/m² | - |
| 1777858437 | 11.67° C | 78% | 1014 hPa | 0 mm | - | 42 W/m² | - |
| 1777858133 | 11.67° C | 79% | 1013.7 hPa | 0 mm | - | 46 W/m² | - |
| 1777857831 | 12.22° C | 78% | 1013.7 hPa | 0 mm | - | 54 W/m² | - |
| 1777857529 | 12.22° C | 77% | 1013.9 hPa | 0 mm | - | 76 W/m² | - |
| 1777857225 | 12.78° C | 76% | 1013.8 hPa | 0 mm | - | 116 W/m² | - |
| 1777856921 | 12.78° C | 74% | 1013.9 hPa | 0 mm | - | 147 W/m² | - |
| 1777856617 | 12.78° C | 74% | 1013.8 hPa | 0 mm | - | 164 W/m² | - |
| 1777856314 | 12.22° C | 72% | 1013.6 hPa | 0 mm | - | 159 W/m² | - |
| 1777856011 | 12.22° C | 77% | 1013.5 hPa | 0 mm | - | 164 W/m² | - |
| 1777855708 | 12.22° C | 75% | 1013.8 hPa | 0 mm | - | 157 W/m² | - |
| 1777855406 | 11.67° C | 72% | 1013.9 hPa | 0 mm | - | 146 W/m² | - |
| 1777855102 | 11.67° C | 73% | 1013.9 hPa | 0 mm | - | 161 W/m² | - |
| 1777854799 | 12.22° C | 67% | 1013.9 hPa | 0 mm | - | 158 W/m² | - |
| 1777854496 | 12.22° C | 74% | 1013.9 hPa | 0 mm | - | 230 W/m² | - |
| 1777854192 | 11.67° C | 75% | 1013.8 hPa | 0 mm | - | 206 W/m² | - |
| 1777853890 | 11.67° C | 77% | 1013.8 hPa | 0 mm | - | 196 W/m² | - |
| 1777853587 | 11.11° C | 78% | 1013.9 hPa | 0 mm | - | 244 W/m² | - |
| 1777853284 | 11.11° C | 81% | 1014 hPa | 1.78 mm | - | 192 W/m² | - |
| 1777852981 | 10.56° C | 83% | 1013.7 hPa | 1.78 mm | - | 154 W/m² | - |
| 1777852679 | 10.56° C | 88% | 1013.6 hPa | 1.27 mm | - | 132 W/m² | - |
* Rain latest hour (hover to see other rain measurements)
** Current wind speed in m/s (hover to see current wind gust speed)